www.pogodaiklimat.ru

Погода и климат >> Архив погоды >> Вьетнам >> Phu Lien


ПОГОДА в Phu Lien

  • Прогноз погоды в Phu Lien
  • Монитор погоды в Phu Lien
  • Климат города

АРХИВ ПОГОДЫ в Phu Lien

Время (UTC), дата Ветер
(напр.,м/с)
 
Видим.   Явления Облачность Т
(С)
Тd
(С)
f
(%)
Тe
(С)
Тes
(С)
Комфортность P
(гПа)
Po
(гПа)
Тmin
(С)
Tmax
(С)
R
(мм)
R24
(мм)
S
(см)
03 16.09 СЗ 4 10 км 8/0
[Cs]
+32.5 +27.1 73 +51 +59 опасность
перегрева
1002.1 989.2
06 16.09 С 4 10 км 8/8 600 м
[Cu Sc]
+33.0 +22.8 55 +43 +45 опасность
перегрева
999.4 986.6
09 16.09 С 4 10 км 10/8 600 м
[Cu med, cong As op]
+33.0 +24.9 63 +47 +47 опасность
перегрева
997.4 984.6
12 16.09 СЗ 3 10 км 8/8 600 м
[Cu Sc]
+31.0 +25.0 70 +44 +44 опасность
перегрева
997.3 984.4 +34.5
15 16.09 З 4 10 км 9/9 1500 м
[Sc]
+30.4 +25.4 75 +45 +45 опасность
перегрева
998.2 985.3
18 16.09 СЗ 4 10 км 10/10 600 м
[Cu Sc]
+28.8 +25.1 80 +42 +42 опасность
перегрева
996.5 983.5
21 16.09 СЗ 4 10 км 10/10 600 м
[Cu Sc]
+29.2 +23.4 71 +40 +40 очень
душно
996.1 982.2
00 17.09 СЗ 2 10 км {дождь} 10/10 600 м
[Cu Sc]
+26.4 +24.6 90 +37 +37 очень
душно
998.4 985.3 +25.5 0.1
03 17.09 СЗ 5 10 км слабый дождь 10/5 600 м
[Cu med, cong As op]
+28.0 +23.8 78 +39 +39 очень
душно
1001.1 988.0
06 17.09 штиль 0 10 км слабый дождь 9/3 600 м
[Cu med, cong As trans]
+26.9 +24.7 88 +38 +46 очень
душно
1011.4 988.2 0.0
09 17.09 штиль 0 10 км {дождь} 10/8 600 м
[Cu med, cong As op]
+26.7 +25.1 91 +38 +39 очень
душно
1001.9 988.7
12 17.09 штиль 0 10 км {дождь} 10/10 800 м
[Cu Sc]
+24.8 +24.0 95 +34 +34 очень
душно
1004.7 991.4 +24.8 +29.0 0.1
15 17.09 штиль 0 10 км слабый дождь 10/10 600 м
[Cu Sc]
+24.7 +23.9 95 +34 +34 очень
душно
1007.1 998.8
18 17.09 штиль 0 2000 м сильный дождь 10/3 600 м
[Cu hum As op]
+24.3 +24.3 100 +34 +34 очень
душно
1006.3 993.0 18
21 17.09 Ю 1 2000 м гроза, ливневой дождь 10/8 600 м
[Cb cap As op]
+23.8 +23.8 100 +32 +32 очень
душно
1006.3 993.0
00 18.09 штиль 0 10 км {гроза, ливн. осадки} 10/8 600 м
[Cu med, cong As op]
+24.3 +24.3 100 +34 +34 очень
душно
1008.5 995.2 +23.5 76
03 18.09 штиль 0 10 км слабый дождь {гроза} 10/8 800 м
[Cu med, cong As op]
+25.8 +25.6 99 +38 +39 очень
душно
1010.3 997.0
06 18.09 штиль 0 10 км слабый дождь {гроза} 10/5 600 м
[Cu med, cong As op]
+26.0 +25.5 97 +38 +40 очень
душно
1009.2 995.9 1
09 18.09 штиль 0 10 км {дождь} 9/5 600 м
[Cu med, cong As trans]
+25.8 +25.6 99 +38 +39 очень
душно
1008.1 994.8
12 18.09 штиль 0 10 км {дождь} 8/8 600 м
[Cu Sc]
+25.5 +25.5 100 +37 +37 очень
душно
1009.6 996.3 +26.7 2
15 18.09 С 2 10 км 8/8 600 м
[Cu Sc]
+25.5 +25.5 100 +37 +37 очень
душно
1011.3 998.0
18 18.09 штиль 0 10 км {гроза} 8/8 800 м
[Cb cap]
+25.9 +25.9 100 +38 +38 очень
душно
1010.3 997.0 1
21 18.09 штиль 0 10 км гроза, ливневой дождь 10/10 300 м
[Cb cap]
+23.5 +23.5 100 +32 +32 очень
душно
1011.0 997.6
00 19.09 штиль 0 10 км {гроза, ливн. осадки} 10/10 600 м
[Cu Sc]
+24.1 +24.1 100 +33 +33 очень
душно
1013.0 999.6 +23.0 14
03 19.09 штиль 0 10 км слабый дождь 9/9 600 м
[Cu Sc]
+26.7 +26.2 97 +40 +42 очень
душно
1014.2 1000.9
06 19.09 штиль 0 10 км {дождь} 8/6 600 м
[Cu med, cong Ci fib]
+29.5 +27.5 89 +48 +56 опасность
перегрева
1011.7 998.6 0.8
09 19.09 штиль 0 10 км 3/3 600 м
[Cu med, cong]
+29.4 +27.4 89 +47 +51 опасность
перегрева
1010.4 997.3
12 19.09 штиль 0 10 км 8/8 600 м
[Cu Sc]
+26.4 +26.1 98 +39 +39 очень
душно
1010.9 997.6 +30.8 0.8
15 19.09 штиль 0 10 км 3/3 600 м
[Cu med, cong]
+26.3 +26.0 98 +39 +39 очень
душно
1012.8 999.5
18 19.09 штиль 0 10 км 8/3 800 м
[Cu med, cong Cs]
+25.3 +25.3 100 +36 +36 очень
душно
1011.8 998.5
21 19.09 штиль 0 10 км 8/8 600 м
[Cu Sc]
+24.6 +24.6 100 +34 +34 очень
душно
1011.3 997.9
00 20.09 штиль 0 10 км 3/3 600 м
[Cu med, cong]
+24.6 +24.6 100 +34 +36 очень
душно
1012.6 999.2 +24.6
03 20.09 штиль 0 10 км 4/4 600 м
[Cu med, cong]
+30.4 +27.6 85 +49 +61 опасность
перегрева
1013.4 1000.3
06 20.09 штиль 0 10 км 3/3 800 м
[Cu med, cong]
+31.5 +26.0 73 +47 +64 опасность
перегрева
1011.3 998.2
09 20.09 штиль 0 10 км 8/0
[Cs]
+31.0 +23.5 64 +42 +47 опасность
перегрева
1009.5 996.5
12 20.09 штиль 0 10 км ясно +27.1 +25.5 91 +40 +40 очень
душно
1009.6 996.4 +32.5
15 20.09 штиль 0 10 км ясно +26.6 +25.4 93 +39 +39 очень
душно
1011.6 998.3
18 20.09 штиль 0 10 км ясно +25.8 +25.2 96 +37 +37 очень
душно
1011.1 997.8
21 20.09 СЗ 1 10 км ясно +24.8 +24.8 100 +35 +35 очень
душно
1010.9 997.5
00 21.09 штиль 0 10 км 3/0
[Ci fib]
+24.8 +24.8 100 +35 +37 очень
душно
1012.7 999.3 +24.5
03 21.09 штиль 0 10 км 5/4 600 м
[Cu med, cong Ci fib]
+30.4 +27.0 82 +48 +59 опасность
перегрева
1013.5 1000.4
06 21.09 штиль 0 10 км 9/8 800 м
[Cu med, cong Cs]
+31.6 +25.4 70 +46 +50 опасность
перегрева
1011.6 998.5
09 21.09 штиль 0 10 км 6/3 600 м
[Cu med, cong Ci fib]
+30.9 +26.3 77 +47 +51 опасность
перегрева
1009.9 996.8
12 21.09 штиль 0 10 км 4/4 600 м
[Cu Sc]
+27.8 +25.5 87 +41 +41 опасность
перегрева
1010.5 997.3 +32.5
15 21.09 штиль 0 10 км 8/8 800 м
[Cu Sc]
+27.3 +26.0 93 +41 +41 опасность
перегрева
1012.2 999.0
18 21.09 штиль 0 10 км 3/3 600 м
[Cu Sc]
+27.2 +25.6 91 +40 +40 очень
душно
1012.5 999.3
21 21.09 штиль 0 10 км ясно +26.2 +25.9 98 +39 +39 очень
душно
1012.7 999.4
00 22.09 штиль 0 6000 м дымка ясно +25.5 +25.3 99 +37 +39 очень
душно
1013.8 1000.5 +25.2
03 22.09 штиль 0 10 км 8/8 800 м
[]
+29.3 +26.6 85 +45 +49 опасность
перегрева
1014.6 1001.5
06 22.09 штиль 0 10 км 8/3 600 м
[Cu med, cong Cs]
+30.8 +26.4 77 +47 +61 опасность
перегрева
1013.1 1000.0
09 22.09 штиль 0 10 км 9/5 800 м
[Cu med, cong Cs]
+30.7 +27.5 83 +49 +52 опасность
перегрева
1011.0 997.9
12 22.09 штиль 0 10 км 8/0
[Cs]
+28.6 +25.7 84 +42 +42 опасность
перегрева
1011.5 998.3 +33.4
15 22.09 штиль 0 10 км 8/0
[Cs]
+28.0 +25.1 84 +40 +40 очень
душно
1013.6 1000.4
18 22.09 штиль 0 10 км ясно +27.3 +25.7 91 +40 +40 очень
душно
1013.8 1000.6
21 22.09 штиль 0 10 км 8/8 600 м
[Cu med, cong]
+26.2 +25.7 97 +39 +39 очень
душно
1013.3 1000.0
00 23.09 С 1 10 км 3/3 600 м
[Cu med, cong]
+26.0 +25.5 97 +38 +39 очень
душно
1014.3 1001.0 +25.5

 

Местоположение метеостанции Phu Lien (Вьетнам): широта 20.80 долгота 106.63 высота над уровнем моря 116 м.

В архиве по умолчанию представлена погода в Phu Lien за последнюю неделю. Архивные данные за месяц целиком и за предыдущие месяцы, начиная с января 2011 года, Вы можете получить, выбрав интересующий диапазон дат из раскрывающегося списка и нажав кнопку "Ввод!".


*Определитесь, кто Вы:
робот инопланетянин человек

Внимание! Время в таблицах - всемирное. Для получения местного времени необходимо прибавить поправку, которая в Phu Lien равна 7 ч.

Смотрите также архив погоды в соседних городах и на ближайших метеорологических станциях:

Погода в Nam Dinh (Вьетнам) (65 км)
Погода в Ha Noi (Вьетнам) (90 км)
Погода в Ha Dong (Вьетнам) (91 км)
Погода в Lang Son (Вьетнам) (115 км)
Погода в Bach Long Vi (Вьетнам) (135 км)
Погода в Thanh Hoa (Вьетнам) (147 км)
Погода в Mong Cai (Вьетнам) (160 км)
Погода в Bac Can (Вьетнам) (171 км)
Погода в Longzhou (Китай) (175 км)
Погода в Cao Bang (Вьетнам) (212 км)

Пояснения к столбцам:

Ветер - указаны скорость ветра в м/с - средняя за 10 мин, порывы в срок и между сроками (в фигурных скобках) и направление, откуда дует ветер: С - северный, СВ - северо-восточный, В - восточный, ЮВ - юго-восточный, Ю - южный, ЮЗ - юго-западный, З - западный, СЗ - северо-западный.
Видимость - горизонтальная дальность видимости в метрах или километрах. При видимости от 1 до 10 км при отсутствии осадков обычно наблюдается дымка, при ухудшении видимости до 1 км и менее - туман. В сухую погоду видимость может ухудшаться дымом, пылью или мглою.
Явления - указаны атмосферные явления, наблюдавшиеся в срок или в последний час перед сроком; фигурными скобками обозначены явления, наблюдавшиеся между сроками (за 1-3 часа до срока); квадратными скобками обозначены град или гололедные отложения с указанием их диаметра в мм.
Облачность - указаны через наклонную черту общая и нижняя облачность в баллах и высота нижней границы облаков в метрах; квадратными скобками обозначены формы облаков: Ci - перистые, Cs - перисто-слоистые, Cc - перисто-кучевые, Ac - высококучевые, As - высокослоистые, Sc - слоисто-кучевые, Ns - слоисто-дождевые, Cu - кучевые, Cb - кучево-дождевые. Подробнее классификацию облаков см. в Атласе облаков (PDF).
T - Температура воздуха - температура, измеренная на высоте 2 м над землей.
Td - Температура точки росы - температура, при понижении до которой содержащийся в воздухе водяной пар достигнет насыщения.
f - Относительная влажность воздуха - влажноcть воздуха, измеренная на высоте 2 м над землей.
Te - Эффективная температура - температура, которую ощущает одетый по сезону человек в тени. Характеристика душности погоды. При расчете учитывается влияние влажности воздуха и скорости ветра на теплоощущения человека.
Tes - Эффективная температура на солнце - температура, которую ощущает человек, с поправкой на солнечный нагрев. Характеристика знойности погоды. Зависит от высоты солнца над горизонтом, облачности и скорости ветра. Ночью, в пасмурную погоду, а также при ветре 12 м/с и более поправка равна нулю.
P - Атмосферное давление - приведенное к уровню моря атмосферное давление.
Po - Атмосферное давление - измеренное на уровне метеостанции атмосферное давление.
Tmin - Минимальная температура - минимум температуры воздуха на высоте 2 м над землей.
Tmax - Максимальная температура - максимум температуры воздуха на высоте 2 м над землей.
R - Количество осадков - Количество выпавших осадков за период времени, мм. При наведении курсора мыши на число - период времени, за который выпало указанное количество осадков.
R24 - Количество осадков - Количество выпавших осадков за 24 часа, мм.
S - Снежный покров - Высота снежного покрова, см. При наведении курсора мыши на число - состояние снежного покрова и степень покрытия местности в баллах.